User: anonymous
Location: Terra Rouge Observatory
(46.0000°N, 62.7500°W)
Time: 04:47:40
(UTC-03:00)
Language:

Landsat 5 - Orbit

View from above orbital plane
View from above orbital plane
View from above satellite
View from above satellite

Ground track
Ground track

The orbit data is extracted from the following two-line orbital elements,

1 14780U 84021A   14212.78202867  .00000854  00000-0  90196-4 0  3760
2 14780 098.0531 290.8667 0096020 027.4956 121.7448 14.88761993619252
Epoch (UTC): 31 July 2014 18:46:07
Eccentricity: 0.0096020
inclination: 98.0531°
perigee height: 535 km
apogee height: 669 km
right ascension of ascending node: 290.8667°
argument of perigee: 27.4956°
revolutions per day: 14.88761993
mean anomaly at epoch: 121.7448°
orbit number at epoch: 61925

The dashed part of the orbit path shows where the satellite is in the earth's shadow,  

DLR